| time (UTC) | temp C | wind direction | speed KPH | gust KPH | rain 1hr cm | rain 24hr cm | rain mn cm | humidity % | barometer mb |
| 20260903211834 | 23 | 236 | 1.6 | 9.7 | 0.00 | 1.88 | 0.00 | 89 | 1013.1 |
| 20260903211332 | 24 | 240 | 3.2 | 11.3 | 0.00 | 1.88 | 0.00 | 90 | 1013.3 |
| 20260903210838 | 23 | 242 | 4.8 | 11.3 | 0.00 | 1.88 | 0.00 | 89 | 1013.4 |
| 20260903210343 | 24 | 226 | 3.2 | 9.7 | 0.00 | 1.88 | 0.00 | 90 | 1013.4 |
| 20260903205852 | 24 | 227 | 3.2 | 8.0 | 0.00 | 1.88 | 0.00 | 89 | 1013.4 |
| 20260903205352 | 24 | 230 | 3.2 | 8.0 | 0.00 | 1.88 | 0.00 | 89 | 1013.3 |
| 20260903204911 | 24 | 210 | 3.2 | 8.0 | 0.00 | 1.88 | 0.00 | 89 | 1013.4 |
| 20260903204355 | 24 | 112 | 3.2 | 6.4 | 0.00 | 1.88 | 0.00 | 88 | 1013.5 |
| 20260903203833 | 24 | 42 | 3.2 | 6.4 | 0.00 | 1.88 | 0.00 | 88 | 1013.7 |
| 20260903203341 | 24 | 227 | 1.6 | 8.0 | 0.00 | 1.88 | 0.00 | 88 | 1013.8 |
| 20260903202844 | 24 | 209 | 3.2 | 11.3 | 0.00 | 1.88 | 0.00 | 89 | 1013.8 |
| 20260903202411 | 24 | 196 | 3.2 | 12.9 | 0.00 | 1.88 | 0.00 | 88 | 1013.8 |
| 20260903201833 | 24 | 292 | 3.2 | 12.9 | 0.00 | 1.88 | 0.00 | 88 | 1013.8 |
| 20260903201331 | 24 | 200 | 3.2 | 11.3 | 0.00 | 1.88 | 0.00 | 88 | 1013.9 |
| 20260903200831 | 24 | 190 | 4.8 | 9.7 | 0.00 | 1.88 | 0.00 | 87 | 1014.0 |
| 20260903200338 | 24 | 213 | 3.2 | 9.7 | 0.00 | 1.88 | 0.00 | 88 | 1013.9 |
| 20260903195844 | 24 | 192 | 3.2 | 9.7 | 0.00 | 1.88 | 0.00 | 88 | 1014.2 |
| 20260903195348 | 23 | 205 | 3.2 | 11.3 | 0.00 | 1.88 | 0.00 | 88 | 1014.2 |
| 20260903194845 | 23 | 202 | 3.2 | 9.7 | 0.00 | 1.88 | 0.00 | 87 | 1014.1 |
| 20260903194339 | 23 | 202 | 4.8 | 14.5 | 0.00 | 1.88 | 0.00 | 86 | 1014.1 |
| 20260903193836 | 23 | 205 | 6.4 | 14.5 | 0.00 | 1.88 | 0.00 | 87 | 1014.0 |
| 20260903193337 | 23 | 220 | 6.4 | 16.1 | 0.00 | 1.88 | 0.00 | 86 | 1014.0 |
| 20260903192842 | 24 | 252 | 6.4 | 16.1 | 0.00 | 1.88 | 0.00 | 86 | 1014.1 |
| 20260903192350 | 24 | 150 | 3.2 | 11.3 | 0.00 | 1.88 | 0.00 | 86 | 1014.3 |
| 20260903191855 | 24 | 269 | 4.8 | 11.3 | 0.00 | 1.88 | 0.00 | 86 | 1014.2 |
| 20260903191343 | 24 | 160 | 4.8 | 9.7 | 0.00 | 1.88 | 0.00 | 85 | 1014.4 |
| 20260903190844 | 24 | 261 | 3.2 | 9.7 | 0.00 | 1.88 | 0.00 | 85 | 1014.3 |
| 20260903190357 | 25 | 239 | 4.8 | 16.1 | 0.00 | 1.88 | 0.00 | 84 | 1014.2 |
| 20260903185850 | 25 | 186 | 4.8 | 16.1 | 0.00 | 1.88 | 0.00 | 84 | 1014.0 |
| 20260903185344 | 25 | 215 | 4.8 | 17.7 | 0.00 | 1.88 | 0.00 | 83 | 1014.1 |
| 20260903184842 | 25 | 234 | 6.4 | 17.7 | 0.00 | 1.88 | 0.00 | 83 | 1014.1 |
| 20260903184410 | 25 | 155 | 3.2 | 9.7 | 0.00 | 1.88 | 0.00 | 84 | 1014.2 |
| 20260903183830 | 25 | 240 | 4.8 | 20.9 | 0.00 | 1.88 | 0.00 | 82 | 1014.1 |
| 20260903183332 | 25 | 196 | 9.7 | 20.9 | 0.00 | 1.88 | 0.00 | 81 | 1014.2 |
| 20260903182912 | 25 | 238 | 4.8 | 12.9 | 0.00 | 1.88 | 0.00 | 81 | 1014.2 |
| 20260903182352 | 25 | 212 | 4.8 | 12.9 | 0.00 | 1.88 | 0.00 | 80 | 1014.3 |
| 20260903181848 | 25 | 320 | 3.2 | 12.9 | 0.00 | 1.88 | 0.00 | 82 | 1014.3 |
| 20260903181344 | 25 | 182 | 1.6 | 6.4 | 0.00 | 1.88 | 0.00 | 83 | 1014.2 |
| 20260903180849 | 25 | 209 | 3.2 | 9.7 | 0.00 | 1.88 | 0.00 | 82 | 1014.3 |
| 20260903180359 | 25 | 304 | 3.2 | 9.7 | 0.00 | 1.88 | 0.00 | 82 | 1014.3 |
| 20260903175839 | 25 | 245 | 3.2 | 11.3 | 0.00 | 1.91 | 0.00 | 82 | 1014.3 |
| 20260903175338 | 25 | 38 | 3.2 | 11.3 | 0.00 | 1.91 | 0.00 | 82 | 1014.2 |
| 20260903174847 | 25 | 198 | 1.6 | 11.3 | 0.00 | 1.91 | 0.00 | 83 | 1014.1 |
| 20260903174337 | 25 | 251 | 3.2 | 6.4 | 0.00 | 1.91 | 0.00 | 84 | 1014.1 |
| 20260903173832 | 25 | 144 | 3.2 | 6.4 | 0.00 | 1.91 | 0.00 | 85 | 1014.3 |
| 20260903173339 | 25 | 253 | 3.2 | 9.7 | 0.00 | 1.91 | 0.00 | 84 | 1014.3 |
| 20260903172856 | 25 | 235 | 3.2 | 16.1 | 0.00 | 1.91 | 0.00 | 83 | 1014.4 |
| 20260903172353 | 25 | 202 | 6.4 | 16.1 | 0.00 | 1.91 | 0.00 | 83 | 1014.3 |
| 20260903171840 | 25 | 241 | 6.4 | 14.5 | 0.00 | 1.91 | 0.00 | 84 | 1014.4 |
| 20260903171334 | 25 | 190 | 3.2 | 14.5 | 0.00 | 1.91 | 0.00 | 84 | 1014.3 |
| 20260903170839 | 25 | 233 | 8.0 | 14.5 | 0.00 | 1.91 | 0.00 | 87 | 1014.3 |
| 20260903170340 | 24 | 250 | 4.8 | 14.5 | 0.00 | 1.91 | 0.00 | 87 | 1014.3 |
| 20260903165834 | 24 | 240 | 3.2 | 11.3 | 0.00 | 2.03 | 0.00 | 87 | 1014.5 |
| 20260903165334 | 24 | 230 | 4.8 | 11.3 | 0.00 | 2.03 | 0.00 | 88 | 1014.5 |
| 20260903164838 | 24 | 229 | 3.2 | 11.3 | 0.00 | 2.03 | 0.00 | 87 | 1014.5 |
| 20260903164403 | 24 | 209 | 4.8 | 11.3 | 0.00 | 2.03 | 0.00 | 87 | 1014.6 |
| 20260903163831 | 24 | 236 | 3.2 | 11.3 | 0.00 | 2.03 | 0.00 | 89 | 1014.5 |
| 20260903163355 | 23 | 205 | 1.6 | 8.0 | 0.00 | 2.03 | 0.00 | 88 | 1014.5 |
| 20260903162900 | 23 | 244 | 4.8 | 14.5 | 0.00 | 2.03 | 0.00 | 89 | 1014.6 |
| 20260903162341 | 23 | 231 | 4.8 | 14.5 | 0.00 | 2.03 | 0.00 | 89 | 1014.6 |
| 20260903161842 | 23 | 234 | 4.8 | 9.7 | 0.00 | 2.03 | 0.00 | 90 | 1014.6 |
| 20260903161404 | 23 | 239 | 3.2 | 9.7 | 0.00 | 2.03 | 0.00 | 90 | 1014.5 |
| 20260903160903 | 22 | 222 | 1.6 | 11.3 | 0.00 | 2.03 | 0.00 | 90 | 1014.5 |
| 20260903160345 | 22 | 222 | 3.2 | 11.3 | 0.00 | 2.03 | 0.00 | 90 | 1014.6 |
| 20260903155841 | 22 | 269 | 3.2 | 9.7 | 0.00 | 2.03 | 0.00 | 90 | 1014.7 |
| 20260903155345 | 22 | 235 | 4.8 | 9.7 | 0.00 | 2.03 | 0.00 | 91 | 1014.8 |
| 20260903154833 | 22 | 237 | 1.6 | 8.0 | 0.00 | 2.03 | 0.00 | 92 | 1014.8 |
| 20260903154342 | 22 | 194 | 3.2 | 11.3 | 0.00 | 2.03 | 0.00 | 91 | 1014.9 |
| 20260903153844 | 22 | 236 | 4.8 | 11.3 | 0.00 | 2.03 | 0.00 | 91 | 1014.7 |
| 20260903153336 | 22 | 243 | 3.2 | 9.7 | 0.00 | 2.03 | 0.00 | 92 | 1014.9 |
| 20260903152839 | 22 | 230 | 4.8 | 8.0 | 0.00 | 2.03 | 0.00 | 92 | 1014.9 |
| 20260903152338 | 22 | 183 | 3.2 | 8.0 | 0.00 | 2.03 | 0.00 | 92 | 1014.9 |
| 20260903151840 | 22 | 238 | 3.2 | 6.4 | 0.00 | 2.03 | 0.00 | 92 | 1015.0 |
| 20260903151344 | 22 | 221 | 1.6 | 9.7 | 0.00 | 2.03 | 0.00 | 92 | 1015.0 |
| 20260903150848 | 22 | 231 | 3.2 | 9.7 | 0.00 | 2.03 | 0.00 | 92 | 1014.9 |
| 20260903150341 | 22 | 198 | 3.2 | 6.4 | 0.00 | 2.03 | 0.00 | 92 | 1014.8 |
| 20260903145835 | 21 | 198 | 3.2 | 9.7 | 0.00 | 2.03 | 0.00 | 92 | 1014.9 |
| 20260903145337 | 21 | 228 | 4.8 | 11.3 | 0.00 | 2.03 | 0.00 | 92 | 1014.9 |
| 20260903144840 | 22 | 170 | 4.8 | 12.9 | 0.00 | 2.03 | 0.00 | 92 | 1014.9 |
| 20260903144338 | 22 | 222 | 1.6 | 12.9 | 0.00 | 2.03 | 0.00 | 92 | 1014.9 |
| 20260903143905 | 22 | 233 | 1.6 | 9.7 | 0.00 | 2.03 | 0.00 | 92 | 1014.9 |
| 20260903143338 | 22 | 222 | 4.8 | 8.0 | 0.00 | 2.03 | 0.00 | 92 | 1014.8 |
| 20260903142906 | 22 | 220 | 1.6 | 11.3 | 0.00 | 2.03 | 0.00 | 92 | 1014.9 |
| 20260903142356 | 21 | 227 | 4.8 | 12.9 | 0.00 | 2.03 | 0.00 | 92 | 1014.9 |
| 20260903141836 | 21 | 223 | 4.8 | 12.9 | 0.00 | 2.03 | 0.00 | 93 | 1014.9 |
| 20260903141334 | 21 | 233 | 3.2 | 8.0 | 0.00 | 2.03 | 0.00 | 93 | 1014.9 |
| 20260903140836 | 21 | 213 | 4.8 | 11.3 | 0.00 | 2.03 | 0.00 | 93 | 1014.8 |
| 20260903140351 | 21 | 213 | 3.2 | 14.5 | 0.00 | 2.03 | 0.00 | 93 | 1014.8 |
| 20260903135853 | 21 | 236 | 6.4 | 12.9 | 0.00 | 2.03 | 0.00 | 94 | 1014.7 |
| 20260903135332 | 21 | 242 | 6.4 | 12.9 | 0.00 | 2.03 | 0.00 | 94 | 1014.8 |
| 20260903134855 | 21 | 168 | 1.6 | 12.9 | 0.00 | 2.03 | 0.00 | 95 | 1014.8 |
| 20260903134334 | 21 | 201 | 6.4 | 12.9 | 0.00 | 2.03 | 0.00 | 95 | 1014.9 |
| 20260903133832 | 21 | 156 | 3.2 | 11.3 | 0.00 | 2.03 | 0.00 | 96 | 1014.9 |
| 20260903133332 | 21 | 212 | 4.8 | 11.3 | 0.00 | 2.03 | 0.00 | 96 | 1014.9 |
| 20260903132832 | 21 | 225 | 3.2 | 12.9 | 0.00 | 2.03 | 0.00 | 96 | 1014.9 |
| 20260903132353 | 21 | 246 | 3.2 | 8.0 | 0.00 | 2.03 | 0.00 | 97 | 1015.0 |
| 20260903131842 | 21 | 207 | 3.2 | 8.0 | 0.00 | 2.03 | 0.00 | 97 | 1015.1 |
| 20260903131340 | 21 | 236 | 3.2 | 8.0 | 0.00 | 2.03 | 0.00 | 97 | 1015.3 |
| 20260903130855 | 21 | 235 | 1.6 | 8.0 | 0.00 | 2.03 | 0.00 | 97 | 1015.3 |
| 20260903130420 | 21 | 211 | 1.6 | 4.8 | 0.00 | 2.03 | 0.00 | 97 | 1015.3 |
| 20260903075831 | 19 | 92 | 4.8 | 8.0 | 0.00 | 2.51 | 0.00 | 96 | 1012.9 |
| 20260903075352 | 19 | 266 | 3.2 | 11.3 | 0.00 | 2.51 | 0.00 | 96 | 1012.9 |
| 20260903074842 | 19 | 227 | 4.8 | 11.3 | 0.00 | 2.51 | 0.00 | 96 | 1013.1 |
| 20260903074342 | 19 | 138 | 1.6 | 9.7 | 0.00 | 2.51 | 0.00 | 96 | 1012.9 |
| 20260903073839 | 19 | 259 | 3.2 | 9.7 | 0.00 | 2.51 | 0.00 | 96 | 1013.0 |
| 20260903073337 | 19 | 218 | 0.0 | 4.8 | 0.00 | 2.51 | 0.00 | 96 | 1013.1 |
| 20260903072842 | 19 | 186 | 1.6 | 9.7 | 0.00 | 2.51 | 0.00 | 96 | 1013.1 |
| 20260903072334 | 19 | 231 | 3.2 | 9.7 | 0.00 | 2.51 | 0.00 | 96 | 1013.2 |
| 20260903071834 | 19 | 206 | 1.6 | 8.0 | 0.00 | 2.51 | 0.00 | 96 | 1013.2 |
| 20260903071333 | 19 | 226 | 3.2 | 8.0 | 0.00 | 2.51 | 0.00 | 96 | 1013.2 |
| 20260903070840 | 19 | 225 | 1.6 | 4.8 | 0.00 | 2.51 | 0.00 | 96 | 1013.1 |
| 20260903070342 | 19 | 270 | 1.6 | 6.4 | 0.00 | 2.51 | 0.00 | 96 | 1013.0 |
| 20260903065849 | 19 | 263 | 1.6 | 8.0 | 0.00 | 2.51 | 0.00 | 95 | 1013.0 |
| 20260903065334 | 19 | 249 | 4.8 | 8.0 | 0.00 | 2.51 | 0.00 | 96 | 1013.4 |
| 20260903064830 | 19 | 243 | 1.6 | 4.8 | 0.00 | 2.51 | 0.00 | 96 | 1013.6 |
| 20260903064341 | 19 | 243 | 1.6 | 6.4 | 0.00 | 2.51 | 0.00 | 96 | 1013.7 |
| 20260903063847 | 19 | 238 | 3.2 | 6.4 | 0.00 | 2.51 | 0.00 | 96 | 1014.0 |
| 20260903063348 | 19 | 217 | 3.2 | 6.4 | 0.00 | 2.51 | 0.00 | 96 | 1013.8 |
| 20260903062905 | 19 | 159 | 1.6 | 8.0 | 0.00 | 2.51 | 0.00 | 96 | 1013.9 |
| 20260903062348 | 19 | 247 | 1.6 | 8.0 | 0.00 | 2.51 | 0.00 | 96 | 1013.8 |
| 20260903061848 | 19 | 205 | 1.6 | 12.9 | 0.00 | 2.51 | 0.00 | 96 | 1013.8 |
| 20260903061349 | 19 | 249 | 4.8 | 16.1 | 0.00 | 2.51 | 0.00 | 96 | 1014.0 |
| 20260903060833 | 19 | 211 | 4.8 | 16.1 | 0.00 | 2.51 | 0.00 | 96 | 1014.1 |
| 20260903060332 | 19 | 234 | 3.2 | 12.9 | 0.00 | 2.51 | 0.00 | 96 | 1014.0 |
| 20260903055901 | 19 | 246 | 6.4 | 12.9 | 0.00 | 2.51 | 0.00 | 96 | 1013.9 |
| 20260903054847 | 19 | 272 | 3.2 | 8.0 | 0.00 | 2.51 | 0.00 | 95 | 1013.8 |
| 20260903054352 | 19 | 207 | 4.8 | 11.3 | 0.00 | 2.51 | 0.00 | 95 | 1013.7 |
| 20260903053856 | 19 | 239 | 3.2 | 11.3 | 0.00 | 2.51 | 0.00 | 95 | 1013.5 |
| 20260903053336 | 19 | 216 | 1.6 | 12.9 | 0.00 | 2.51 | 0.00 | 95 | 1013.7 |
| 20260903052854 | 19 | 215 | 4.8 | 12.9 | 0.00 | 2.51 | 0.00 | 95 | 1014.0 |
| 20260903052338 | 19 | 240 | 4.8 | 19.3 | 0.00 | 2.51 | 0.00 | 95 | 1014.4 |
| 20260903051844 | 19 | 217 | 6.4 | 14.5 | 0.00 | 2.51 | 0.00 | 95 | 1014.1 |
| 20260903051331 | 19 | 246 | 3.2 | 14.5 | 0.00 | 2.51 | 0.00 | 95 | 1014.2 |
| 20260903050834 | 19 | 247 | 3.2 | 8.0 | 0.00 | 2.51 | 0.00 | 95 | 1014.1 |
| 20260903050358 | 19 | 235 | 3.2 | 6.4 | 0.00 | 2.51 | 0.00 | 95 | 1013.8 |
| 20260903045843 | 19 | 230 | 3.2 | 4.8 | 0.00 | 2.51 | 0.00 | 95 | 1014.0 |
| 20260903045409 | 19 | 182 | 1.6 | 6.4 | 0.00 | 2.51 | 0.00 | 95 | 1014.1 |
| 20260903044847 | 19 | 245 | 3.2 | 6.4 | 0.03 | 2.51 | 0.00 | 95 | 1014.2 |
| 20260903044332 | 19 | 212 | 3.2 | 6.4 | 0.03 | 2.51 | 0.00 | 95 | 1014.2 |
| 20260903043912 | 19 | 258 | 1.6 | 6.4 | 0.05 | 2.51 | 0.00 | 95 | 1014.2 |
| 20260903043338 | 19 | 199 | 1.6 | 6.4 | 0.05 | 2.51 | 0.00 | 95 | 1013.8 |
| 20260903042858 | 19 | 253 | 3.2 | 4.8 | 0.05 | 2.51 | 0.00 | 95 | 1013.7 |
| 20260903042340 | 19 | 253 | 1.6 | 8.0 | 0.05 | 2.51 | 0.00 | 95 | 1013.7 |
| 20260903041841 | 19 | 248 | 3.2 | 9.7 | 0.08 | 2.51 | 0.00 | 95 | 1014.2 |
| 20260903041413 | 19 | 244 | 3.2 | 8.0 | 0.08 | 2.51 | 0.00 | 95 | 1014.2 |
| 20260903040843 | 19 | 232 | 3.2 | 8.0 | 0.08 | 2.51 | 0.00 | 95 | 1014.0 |
| 20260903040337 | 19 | 157 | 1.6 | 6.4 | 0.08 | 2.51 | 0.00 | 95 | 1013.6 |
| 20260903035843 | 19 | 136 | 1.6 | 8.0 | 0.08 | 2.51 | 2.51 | 95 | 1013.6 |
| 20260903035343 | 19 | 198 | 1.6 | 3.2 | 0.28 | 2.49 | 2.49 | 95 | 1013.6 |
| 20260903034845 | 19 | 107 | 0.0 | 3.2 | 0.28 | 2.49 | 2.49 | 95 | 1013.1 |
| 20260903034339 | 19 | 188 | 1.6 | 3.2 | 0.28 | 2.49 | 2.49 | 95 | 1013.2 |
| 20260903033837 | 19 | 188 | 0.0 | 3.2 | 0.28 | 2.46 | 2.46 | 95 | 1013.4 |
| 20260903033346 | 19 | 188 | 1.6 | 4.8 | 0.28 | 2.46 | 2.46 | 95 | 1013.4 |
| 20260903032849 | 19 | 188 | 1.6 | 4.8 | 0.28 | 2.46 | 2.46 | 95 | 1013.6 |
| 20260903032331 | 19 | 240 | 0.0 | 3.2 | 0.28 | 2.46 | 2.46 | 95 | 1014.0 |
| 20260903031857 | 19 | 240 | 1.6 | 3.2 | 0.25 | 2.44 | 2.44 | 94 | 1014.5 |
| 20260903031333 | 19 | 240 | 1.6 | 3.2 | 0.25 | 2.44 | 2.44 | 94 | 1014.4 |
| 20260903030831 | 19 | 240 | 1.6 | 3.2 | 0.25 | 2.44 | 2.44 | 94 | 1014.2 |
| 20260903030351 | 19 | 240 | 1.6 | 4.8 | 0.28 | 2.44 | 2.44 | 94 | 1014.2 |
| 20260903025841 | 19 | 240 | 0.0 | 8.0 | 0.28 | 2.44 | 2.44 | 94 | 1014.3 |
| 20260903025400 | 19 | 252 | 3.2 | 8.0 | 0.08 | 2.21 | 2.21 | 94 | 1014.8 |
| 20260903024841 | 20 | 230 | 3.2 | 4.8 | 0.10 | 2.21 | 2.21 | 94 | 1014.5 |
| 20260903024332 | 20 | 230 | 1.6 | 4.8 | 0.13 | 2.21 | 2.21 | 94 | 1014.6 |
| 20260903023833 | 20 | 230 | 1.6 | 3.2 | 0.18 | 2.18 | 2.18 | 94 | 1014.5 |
| 20260903023340 | 20 | 230 | 1.6 | 3.2 | 0.33 | 2.18 | 2.18 | 94 | 1014.5 |
| 20260903022839 | 20 | 230 | 1.6 | 3.2 | 0.33 | 2.18 | 2.18 | 94 | 1014.8 |
| 20260903022406 | 20 | 230 | 1.6 | 3.2 | 0.33 | 2.18 | 2.18 | 94 | 1014.9 |
| 20260903021848 | 20 | 230 | 0.0 | 3.2 | 0.33 | 2.18 | 2.18 | 94 | 1014.8 |
| 20260903021345 | 20 | 230 | 1.6 | 6.4 | 0.33 | 2.18 | 2.18 | 94 | 1014.8 |
| 20260903020843 | 20 | 230 | 0.0 | 6.4 | 0.33 | 2.18 | 2.18 | 94 | 1014.7 |
| 20260903020334 | 20 | 244 | 3.2 | 6.4 | 0.30 | 2.16 | 2.16 | 94 | 1014.7 |
| 20260903015843 | 20 | 251 | 3.2 | 6.4 | 0.30 | 2.16 | 2.16 | 93 | 1014.6 |
| 20260903015340 | 20 | 238 | 3.2 | 6.4 | 0.25 | 2.11 | 2.11 | 93 | 1014.6 |
| 20260903014904 | 20 | 216 | 3.2 | 6.4 | 0.28 | 2.11 | 2.11 | 94 | 1014.6 |
| 20260903014353 | 20 | 220 | 3.2 | 14.5 | 0.25 | 2.08 | 2.08 | 94 | 1014.5 |
| 20260903013847 | 20 | 121 | 8.0 | 14.5 | 0.20 | 2.01 | 2.01 | 94 | 1015.2 |
| 20260903013407 | 20 | 244 | 4.8 | 14.5 | 0.08 | 1.85 | 1.85 | 94 | 1015.9 |
| 20260903012852 | 20 | 111 | 4.8 | 14.5 | 0.08 | 1.85 | 1.85 | 93 | 1014.5 |
| 20260903012333 | 20 | 79 | 4.8 | 12.9 | 0.10 | 1.85 | 1.85 | 93 | 1015.0 |
| 20260903011837 | 20 | 101 | 1.6 | 3.2 | 0.10 | 1.85 | 1.85 | 93 | 1014.4 |
| 20260903011345 | 20 | 101 | 1.6 | 3.2 | 0.10 | 1.85 | 1.85 | 93 | 1014.6 |
| 20260903010841 | 20 | 98 | 1.6 | 4.8 | 0.13 | 1.85 | 1.85 | 93 | 1014.8 |
| 20260903010345 | 20 | 115 | 1.6 | 8.0 | 0.13 | 1.85 | 1.85 | 93 | 1015.0 |
| 20260903005833 | 20 | 171 | 1.6 | 6.4 | 0.13 | 1.85 | 1.85 | 93 | 1015.2 |
| 20260903005339 | 20 | 123 | 1.6 | 4.8 | 0.13 | 1.85 | 1.85 | 93 | 1015.2 |
| 20260903004902 | 20 | 116 | 1.6 | 4.8 | 0.10 | 1.83 | 1.83 | 93 | 1015.3 |
| 20260903004341 | 21 | 116 | 1.6 | 6.4 | 0.10 | 1.83 | 1.83 | 93 | 1015.0 |
| 20260903003833 | 20 | 116 | 1.6 | 9.7 | 0.15 | 1.80 | 1.80 | 93 | 1014.4 |
| 20260903003359 | 21 | 90 | 3.2 | 8.0 | 0.48 | 1.78 | 1.78 | 93 | 1014.5 |
| 20260903002832 | 21 | 115 | 3.2 | 14.5 | 0.94 | 1.78 | 1.78 | 93 | 1014.5 |
| 20260903002347 | 20 | 360 | 6.4 | 14.5 | 1.12 | 1.75 | 1.75 | 93 | 1014.5 |
| 20260903001847 | 21 | 38 | 3.2 | 12.9 | 1.12 | 1.75 | 1.75 | 92 | 1013.9 |
| 20260903001337 | 21 | 24 | 6.4 | 12.9 | 1.12 | 1.75 | 1.75 | 92 | 1013.5 |
| 20260903000830 | 21 | 44 | 4.8 | 9.7 | 1.09 | 1.73 | 1.73 | 92 | 1013.4 |
| 20260903000335 | 21 | 263 | 3.2 | 9.7 | 1.09 | 1.73 | 1.73 | 92 | 1013.2 |
| 20260902235844 | 21 | 96 | 3.2 | 9.7 | 1.09 | 1.73 | 1.73 | 92 | 1013.4 |
| 20260902235350 | 21 | 47 | 3.2 | 9.7 | 1.09 | 1.73 | 1.73 | 92 | 1013.2 |
| 20260902234900 | 21 | 46 | 4.8 | 16.1 | 1.09 | 1.73 | 1.73 | 91 | 1013.0 |
| 20260902234340 | 21 | 113 | 4.8 | 20.9 | 1.09 | 1.73 | 1.73 | 90 | 1012.9 |
| 20260902233836 | 22 | 255 | 8.0 | 22.5 | 1.02 | 1.65 | 1.65 | 88 | 1012.7 |
| 20260902233343 | 23 | 20 | 9.7 | 25.7 | 0.66 | 1.30 | 1.30 | 85 | 1012.3 |
| 20260902232833 | 25 | 309 | 9.7 | 24.1 | 0.20 | 0.84 | 0.84 | 90 | 1012.8 |
| 20260902232336 | 25 | 306 | 1.6 | 8.0 | 0.00 | 0.64 | 0.64 | 91 | 1012.6 |
| 20260902231841 | 25 | 216 | 1.6 | 8.0 | 0.00 | 0.64 | 0.64 | 91 | 1012.8 |
| 20260902231404 | 25 | 294 | 1.6 | 3.2 | 0.00 | 0.64 | 0.64 | 91 | 1013.1 |
| 20260902230841 | 25 | 224 | 1.6 | 3.2 | 0.00 | 0.64 | 0.64 | 91 | 1013.1 |
| 20260902230345 | 26 | 229 | 0.0 | 8.0 | 0.00 | 0.64 | 0.64 | 91 | 1012.9 |
| 20260902225839 | 26 | 229 | 3.2 | 11.3 | 0.00 | 0.64 | 0.64 | 91 | 1013.0 |
| 20260902225341 | 26 | 220 | 3.2 | 11.3 | 0.00 | 0.64 | 0.64 | 90 | 1013.0 |
| 20260902224849 | 26 | 223 | 3.2 | 11.3 | 0.00 | 0.64 | 0.64 | 90 | 1013.0 |
| 20260902224337 | 26 | 227 | 3.2 | 9.7 | 0.00 | 0.64 | 0.64 | 90 | 1013.1 |
| 20260902223834 | 26 | 237 | 3.2 | 11.3 | 0.00 | 0.64 | 0.64 | 89 | 1013.2 |
| 20260902223351 | 26 | 236 | 3.2 | 11.3 | 0.00 | 0.64 | 0.64 | 89 | 1013.2 |
| 20260902222833 | 26 | 244 | 3.2 | 12.9 | 0.00 | 0.64 | 0.64 | 88 | 1013.2 |
| 20260902222338 | 26 | 223 | 3.2 | 12.9 | 0.00 | 0.64 | 0.64 | 88 | 1013.1 |
| 20260902221843 | 26 | 206 | 3.2 | 11.3 | 0.00 | 0.64 | 0.64 | 88 | 1013.1 |
| 20260902221336 | 26 | 239 | 4.8 | 8.0 | 0.00 | 0.64 | 0.64 | 88 | 1013.1 |
| 20260902220843 | 26 | 223 | 3.2 | 8.0 | 0.00 | 0.64 | 0.64 | 88 | 1013.0 |
| 20260902220336 | 26 | 201 | 3.2 | 6.4 | 0.00 | 0.64 | 0.64 | 88 | 1012.8 |
| 20260902215849 | 27 | 141 | 3.2 | 8.0 | 0.00 | 0.64 | 0.64 | 88 | 1012.7 |
| 20260902215415 | 27 | 207 | 3.2 | 8.0 | 0.00 | 0.64 | 0.64 | 88 | 1012.9 |
| 20260902214837 | 26 | 246 | 1.6 | 6.4 | 0.00 | 0.64 | 0.64 | 88 | 1012.8 |
| 20260902214335 | 26 | 212 | 1.6 | 8.0 | 0.00 | 0.64 | 0.64 | 87 | 1012.5 |
| 20260902213843 | 27 | 228 | 3.2 | 14.5 | 0.00 | 0.64 | 0.64 | 86 | 1012.5 |
| 20260902213340 | 27 | 255 | 3.2 | 17.7 | 0.00 | 0.64 | 0.64 | 86 | 1012.5 |
| 20260902212848 | 27 | 257 | 4.8 | 17.7 | 0.00 | 0.64 | 0.64 | 86 | 1012.6 |
| 20260902212331 | 27 | 226 | 6.4 | 16.1 | 0.00 | 0.64 | 0.64 | 85 | 1012.8 |